Погода в Серове

Поиск расширенной информации на нашем сайте:

Полезная информация:

Новости сайта



02.01.2020
Опубликован Долгосрочный прогноз погоды по городам России и ближнего зарубежья на январь 2020 года.
Карты: Прогноз на январь и февраль 2020 года, Сравнение прогнозируемой аномалии приземной температуры воздуха на январь 2020 года по разным моделям.




Погода в Серове - сегодня

Время (UTC), дата Ветер
(°,м/с) 
Видим.   Явления Облачность Т
(°С)
Тd
(°С)
f(%) Тe
(°С)
Pmin
(гПа)
dP
(гПа)
Po
(мм)
O2
(г/м3)
Тmin Tmax R s Состояние
почвы
21 22.10.20 280 (З) 2000 м  слаб. снег  10/10 300 м 
[Frnb]
-5.7 -9.8 73 -5  1013.6  1.7  748  309           
00 23.10.20 290 (З) 10 км  {снег}  5/5 600 м 
[Sc]
-8 -11.4 76 -10  1014.9  1.1  749  312           
03 23.10.20 280 (З) 10 км  {снег}  8/8 600 м 
[Sc]
-7.7 -10.7 79 -9  1015.7  0.9  750  312  -8.3    0.2  равномерный
сухой снег
100% 
06 23.10.20 280 (З) 20000 м    4/3 600 м верхняя 
[Sc|Ci fib]
-2.8 -8.5 65 -4  1016.2  0.8  750  306           
09 23.10.20 280 (З) 20000 м    6/6 600 м 
[Cu hum]
+0.2 -8.2 53 -2  1016.4  0.3  751  303           
12 23.10.20 280 (З) 20000 м    4/4 600 м 
[Sc]
-1.6 -8.6 59 -3  1017.1  0.6  751  305           
15 23.10.20 270 (З) 10 км    ясно 
-4.7 -9.2 71 -6  1017.9  0.6  751  309    +0.3       
18 23.10.20 тихо ()   10 км    ясно 
-7.6 -10 83 -8  1018  0.1  751  312           
21 23.10.20 тихо ()   10 км    ясно 
-9 -10.8 87 -9  1016.9  -1.2  751  314           
00 24.10.20 100 (В) 10 км    3/3 600 м 
[Sc]
-10.1 -11.8 87 -10  1015.1  -1.8  749  315           
03 24.10.20 090 (В) 10 км    9/0 верхняя 
[Ci fib]
-9.3 -11.4 85 -9  1012.8  -2.2  747  313  -10.3      равномерный
сухой снег
100% 
06 24.10.20 120 (ЮВ) 20000 м    10/4 600 м верхняя 
[Sc|Ci fib]
-6.8 -9.5 81 -9  1010.2  -2.4  746  309           
09 24.10.20 110 (В) 10 км  слаб. снег  10/10 300 м 
[Frnb]
-4.1 -6.9 81 -6  1007.3  -2.7  744  305           
12 24.10.20 110 (В) 10 км  слаб. снег  10/10 300 м 
[Frnb|Ns]
-3.6 -5.4 87 -5  1006.2  -1  743  304           
15 24.10.20 110 (В) 2000 м  слаб. снег  10/10 300 м 
[Frnb|Ns]
-3.2 -5 87 -4  1004.9  -1.3  742  303    -3.2     
18 24.10.20 110 (В) 2000 м  слаб. снег  10/10 300 м 
[Frnb|Ns]
-3 -4.5 89 -4  1003.6  -1.2  741  302           
21 24.10.20 110 (В) 2000 м  слаб. снег  10/10 300 м 
[Frnb|Ns]
-2.8 -4.2 90 -2  1002.6  -1  740  302           
00 25.10.20 100 (В) 2000 м  слаб. снег  10/10 300 м 
[Frnb|Ns]
-2.7 -4 91 -2  1001.9  -0.7  740  301           
03 25.10.20 тихо ()   2000 м  слаб. снег  10/10 300 м 
[Frnb|Ns]
-2.6 -3.9 91 -3  1002.2  0.3  740  301  -3.2    равномерный
мокрый или
старый снег
100% 
06 25.10.20 260 (З) 20000 м  {снег}  9/9 600 м 
[Sc]
-0.5 -3 83 1002.9  0.8  741  299           
09 25.10.20 280 (З) 20000 м    9/9 600 м 
[Sc]
+2.2 -1.7 75 +3  1004.3  1.5  742  297           
12 25.10.20 350 (С) 20000 м    9/9 600 м 
[Sc]
+1.7 -1.6 79 +2  1005.8  1.5  743  298           
15 25.10.20 350 (С) 10 км    8/8 600 м 
[Sc]
+0.3 -1.6 87 +1  1006.9  744  299    +2.4  0.4     
18 25.10.20 300 (СЗ) 10 км    9/9 600 м 
[Sc]
-0 -2.3 84 -1  1007.3  0.4  744  300           
21 25.10.20 300 (СЗ) 10 км    10/10 600 м 
[Sc]
-0.6 -2.3 88 1007.2  -0.2  744  301           
Время (UTC), дата Ветер
(°,м/с) 
Видим.   Явления Облачность Т
(°С)
Тd
(°С)
f(%) Тe
(°С)
Pmin
(гПа)
dP
(гПа)
Po
(мм)
O2
(г/м3)
Тmin Tmax R s Состояние
почвы

Для получения пояснительной информации подведите курсор к названию столбца.

ПОГОДА в Серове - архив

Всё, что Вы хотите узнать о погоде в Серове - удобно и подробно!

Выберите нужную дату (начиная с 1 января 2019* года) и нажмите кнопку "Найти".
Будут отображены архивные сводки погоды по пункту Серов, начиная с указанной даты.


Отображать данные в формате CSV (для использования в таблицах Excel)


Внимание! Наш архив погоды предназначен исключительно для личного некоммерческого использования в познавательных целях. Если Вам необходимы официальные справки о состоянии погоды (для производственных, юридических, коммерческих и т.п. целей), обращайтесь в органы Росгидромета.

*Примечание: данная дата относится к архиву по метеостанциям СССР (Россия, СНГ, Балтия).
Архив по метеостанциям Зарубежной Европы и Азии (кроме Китая) хранится 10 дней, по другим регионам земного шара (Китай, Африка, Америка, Австралия, Океания) - 1 день.

Серов - район местоположения метеостанции


Название, широта, долгота, высота метеостанции:
Серов 59.6°ш. 60.5°д. 130 м над ур. моря [Российская Федерация]

Дополнительная информация

В oтличие oт бoльшинства пoгoдных сайтoв мы публикуем пoдрoбную метеoинфoрмацию в детальнoм прoфессиoнальнoм фoрмате.

Характеристики температуры и влажнoсти вoздуха измеряются на высoте 2 м в тени вдали oт зданий и деревьев.
Скoрoсть ветра измеряется на высoте 10 м (на урoвне рoста челoвека скoрoсть ветра ниже в 1.5-2 раза). Если метеoстанция нахoдится в гoрoде или в лесу, тo скoрoсть ветра занижена на 2-4 м/с пo сравнению с oткрытым местoм. Скoрoсть ветра над акватoриями крупных рек и oзёр, а также на вершинах хoлмoв на 2-5 м/с выше, чем в oбычных услoвиях.
Атмoсфернoе давление в разных тoчках местнoсти мoжет значительнo oтличаться oт давления на метеoстанции, в зависимoсти oт услoвий рельефа (при пoдъёме на 10 м давление пoнижается примернo на 1 мм рт.ст.).